Location: Newark
(41.6500°N, 71.4833°W)
Time: 21:58:25
(UTC+00:00)

A-11 Canister half - Pass Details

Date: 24 January 2020
Orbit: 1517 x 1683 km, 47.2° (Epoch: 19 February)

Event Time Altitude Azimuth Distance (km) Brightness Sun altitude
Rises 11:15:51 0° 297° (WNW) 4,664 - -9.4°
Reaches altitude 10° 11:18:59 10° 292° (WNW) 3,682 - -8.9°
Exits shadow 11:19:00 10° 292° (WNW) 3,676 10.3 -8.9°
Maximum altitude 11:27:44 49° 221° (SW) 1,900 9.4 -7.3°
Drops below altitude 10° 11:36:39 10° 150° (SSE) 3,744 11.9 -5.8°
Sets 11:39:52 0° 145° (SE) 4,747 12.6 -5.2°
